Regional Weather Roundup
Issued by NWS Albany, NY

Home | Current Version | Previous Version | Text Only | Print | Product List | Glossary On
Versions: 1 2 3 4 5 6 7 8 9 10 11 12 13 14 15 16 17 18 19 20 21 22 23 24 25 26 27 28 29 30 31 32 33 34 35 36 37 38 39 40 41 42 43 44 45 46 47 48 49 50
000
ASUS41 KALY 131110
RWRALY

NEW YORK STATE HOURLY WEATHER ROUNDUP
NATIONAL WEATHER SERVICE ALBANY NY
700 AM EDT SUN JUL 13 2014

NOTE: "FAIR" INDICATES FEW OR NO CLOUDS BELOW 12,000 FEET WITH NO
SIGNIFICANT WEATHER AND/OR NO OBSTRUCTIONS TO VISIBILITY.

NYZ032-033-038>043-046>054-057>066-NYZ062>081-131200-
EAST


CITY           SKY/WX    TMP DP  RH WIND       PRES   REMARKS
ALBANY         PTSUNNY   71  62  73 S13G18    30.00F
GLENS FALLS    MOSUNNY   67  64  90 CALM      29.99F
POUGHKEEPSIE   PTSUNNY   72  64  76 S3        30.05S
NEWBURGH       PTSUNNY   70  64  83 S7        30.08F
MONTGOMERY     CLOUDY    68  64  87 CALM      30.06F
WHITE PLAINS   PTSUNNY   69  67  93 S7        30.09F
ISLIP          PTSUNNY   73  67  81 S12       30.10
NEW YORK CITY  PTSUNNY   72  66  81 S8        30.09S
CENTRAL PARK   PTSUNNY   72  65  78 VRB3      30.12S
$$

NYZ005>009-017-018-044>046-055-056-131200-
CENTRAL


CITY           SKY/WX    TMP DP  RH WIND       PRES   REMARKS
FULTON         CLOUDY    72  65  78 VRB5      29.88F
SYRACUSE       CLOUDY    76  67  73 S13       29.89F
ROME           PTSUNNY   72  66  81 SE7       29.94F
ELMIRA         PTSUNNY   74  68  81 SW5       29.95F
BINGHAMTON     PTSUNNY   70  65  84 S13       30.02S
$$

NYZ026>034-041>043-131200-
NORTH


CITY           SKY/WX    TMP DP  RH WIND       PRES   REMARKS
WATERTOWN      CLOUDY    75  62  64 S9        29.83F
FORT DRUM      NOT AVBL
MASSENA        CLOUDY    68  63  84 SE6       29.86F
SARANAC LAKE   CLOUDY    66  63  90 SW5       29.95F FOG
PLATTSBURGH    PTSUNNY   68  66  93 S5        29.91F
$$

NYZ001>004-010>016-019>021-131200-
WEST


CITY           SKY/WX    TMP DP  RH WIND       PRES   REMARKS
NIAGARA FALLS  CLOUDY    74  65  73 SW22G31   29.82S
BUFFALO        CLOUDY    76  62  62 SW20G29   29.85R
DUNKIRK        CLOUDY    70  65  84 S13G24    29.87F
JAMESTOWN      CLOUDY    66  63  88 S12       29.95F
WELLSVILLE     PTSUNNY   70  59  68 S6G16     30.00S
ROCHESTER      CLOUDY    74  61  63 S9        29.85F
PENN YAN       CLOUDY    73  66  78 S8        29.93F
$$

             KEY
       WCI = WIND CHILL INDEX
       VSB = VISIBILITY
       HX  = HEAT INDEX
$$


USA.gov is the U.S. government's official web portal to all federal, state and local government web resources and services.